TimeEST,TemperatureF,Dew PointF,Humidity,Sea Level PressureIn,VisibilityMPH,Wind Direction,Wind SpeedMPH,Gust SpeedMPH,PrecipitationIn,Events,Conditions,WindDirDegrees,DateUTC
12:13 AM,35.6,33.8,93,30.23,10.0,North,5.8,-,N/A,,Overcast,360,2013-12-07 05:13:00
12:33 AM,35.6,33.8,93,30.23,10.0,North,6.9,-,N/A,,Overcast,10,2013-12-07 05:33:00
12:53 AM,35.6,33.8,93,30.25,10.0,North,6.9,-,N/A,,Overcast,360,2013-12-07 05:53:00
1:13 AM,35.6,32.0,87,30.24,10.0,NNE,5.8,-,N/A,,Overcast,20,2013-12-07 06:13:00
1:33 AM,35.6,32.0,87,30.26,10.0,North,4.6,-,N/A,,Overcast,360,2013-12-07 06:33:00
1:53 AM,35.6,32.0,87,30.26,10.0,North,4.6,-,N/A,,Overcast,360,2013-12-07 06:53:00
2:13 AM,35.6,32.0,87,30.26,10.0,North,4.6,-,N/A,,Overcast,10,2013-12-07 07:13:00
2:33 AM,35.6,32.0,87,30.27,10.0,NNE,4.6,-,N/A,,Mostly Cloudy,20,2013-12-07 07:33:00
2:53 AM,35.6,32.0,87,30.28,10.0,Calm,Calm,-,N/A,,Mostly Cloudy,0,2013-12-07 07:53:00
3:13 AM,35.6,32.0,87,30.29,10.0,NNW,4.6,-,N/A,,Overcast,330,2013-12-07 08:13:00
3:33 AM,35.6,30.2,81,30.29,10.0,NW,4.6,-,N/A,,Overcast,320,2013-12-07 08:33:00
3:53 AM,35.6,30.2,81,30.29,10.0,NNW,4.6,-,N/A,,Overcast,330,2013-12-07 08:53:00
4:14 AM,35.6,30.2,81,30.29,10.0,NNW,6.9,-,N/A,,Overcast,340,2013-12-07 09:14:00
4:34 AM,35.6,30.2,81,30.31,10.0,NW,5.8,-,N/A,,Overcast,320,2013-12-07 09:34:00
4:54 AM,35.6,30.2,81,30.32,10.0,NW,4.6,-,N/A,,Mostly Cloudy,320,2013-12-07 09:54:00
5:14 AM,35.6,28.4,75,30.32,10.0,NNW,4.6,-,N/A,,Overcast,330,2013-12-07 10:14:00
5:34 AM,35.6,28.4,75,30.33,10.0,NNW,6.9,-,N/A,,Overcast,340,2013-12-07 10:34:00
5:54 AM,35.6,28.4,75,30.35,10.0,NNW,5.8,-,N/A,,Overcast,340,2013-12-07 10:54:00
6:13 AM,35.6,28.4,75,30.36,10.0,NNW,3.5,-,N/A,,Overcast,340,2013-12-07 11:13:00
6:34 AM,35.6,28.4,75,30.37,10.0,NNW,5.8,-,N/A,,Mostly Cloudy,340,2013-12-07 11:34:00
6:54 AM,35.6,28.4,75,30.37,10.0,NNW,3.5,-,N/A,,Mostly Cloudy,340,2013-12-07 11:54:00
7:14 AM,33.8,28.4,81,30.39,10.0,NNW,9.2,-,N/A,,Mostly Cloudy,330,2013-12-07 12:14:00
7:34 AM,33.8,26.6,75,30.40,10.0,NNW,10.4,-,N/A,,Mostly Cloudy,330,2013-12-07 12:34:00
7:54 AM,33.8,26.6,75,30.41,10.0,NNW,9.2,-,N/A,,Overcast,340,2013-12-07 12:54:00
8:14 AM,33.8,26.6,75,30.41,10.0,NNW,12.7,18.4,N/A,,Overcast,330,2013-12-07 13:14:00
8:34 AM,33.8,26.6,75,30.43,10.0,NNW,12.7,20.7,N/A,,Mostly Cloudy,340,2013-12-07 13:34:00
8:54 AM,33.8,24.8,70,30.44,10.0,North,8.1,17.3,N/A,,Overcast,350,2013-12-07 13:54:00
9:14 AM,33.8,24.8,70,30.45,10.0,North,9.2,16.1,N/A,,Overcast,360,2013-12-07 14:14:00
9:34 AM,33.8,24.8,70,30.47,10.0,North,8.1,-,N/A,,Overcast,350,2013-12-07 14:34:00
9:54 AM,33.8,26.6,75,30.48,10.0,North,4.6,16.1,N/A,,Overcast,350,2013-12-07 14:54:00
10:14 AM,33.8,26.6,75,30.48,10.0,North,9.2,-,N/A,,Overcast,350,2013-12-07 15:14:00
10:34 AM,33.8,24.8,70,30.48,10.0,North,6.9,-,N/A,,Mostly Cloudy,350,2013-12-07 15:34:00
10:54 AM,33.8,24.8,70,30.48,10.0,NNW,10.4,17.3,N/A,,Mostly Cloudy,340,2013-12-07 15:54:00
11:14 AM,33.8,24.8,70,30.48,10.0,North,8.1,-,N/A,,Mostly Cloudy,360,2013-12-07 16:14:00
11:34 AM,33.8,24.8,70,30.47,10.0,Calm,Calm,-,N/A,,Scattered Clouds,0,2013-12-07 16:34:00
11:54 AM,33.8,26.6,75,30.47,10.0,North,4.6,-,N/A,,Scattered Clouds,10,2013-12-07 16:54:00
12:14 PM,35.6,26.6,70,30.47,10.0,NNW,8.1,-,N/A,,Mostly Cloudy,340,2013-12-07 17:14:00
12:34 PM,35.6,26.6,70,30.46,10.0,NNW,10.4,17.3,N/A,,Overcast,340,2013-12-07 17:34:00
12:54 PM,33.8,23.0,65,30.47,10.0,West,9.2,19.6,N/A,,Overcast,260,2013-12-07 17:54:00
1:15 PM,35.6,23.0,60,30.46,10.0,North,10.4,-,N/A,,Overcast,350,2013-12-07 18:15:00
1:35 PM,35.6,24.8,65,30.47,10.0,North,9.2,-,N/A,,Mostly Cloudy,350,2013-12-07 18:35:00
1:55 PM,35.6,24.8,65,30.46,10.0,NW,9.2,-,N/A,,Mostly Cloudy,320,2013-12-07 18:55:00
2:15 PM,35.6,24.8,65,30.46,10.0,NNW,10.4,-,N/A,,Scattered Clouds,330,2013-12-07 19:15:00
2:35 PM,35.6,24.8,65,30.46,10.0,NNW,8.1,-,N/A,,Scattered Clouds,330,2013-12-07 19:35:00
2:55 PM,35.6,23.0,60,30.47,10.0,NNW,11.5,17.3,N/A,,Mostly Cloudy,340,2013-12-07 19:55:00
3:15 PM,33.8,21.2,60,30.47,10.0,NW,6.9,17.3,N/A,,Scattered Clouds,320,2013-12-07 20:15:00
3:35 PM,33.8,21.2,60,30.48,10.0,NW,6.9,-,N/A,,Scattered Clouds,320,2013-12-07 20:35:00
3:55 PM,33.8,21.2,60,30.49,10.0,West,8.1,-,N/A,,Scattered Clouds,280,2013-12-07 20:55:00
4:15 PM,33.8,19.4,56,30.50,10.0,NW,8.1,-,N/A,,Clear,310,2013-12-07 21:15:00
4:35 PM,33.8,19.4,56,30.50,10.0,WNW,8.1,-,N/A,,Clear,300,2013-12-07 21:35:00
4:55 PM,32.0,19.4,60,30.51,10.0,NNW,6.9,-,N/A,,Scattered Clouds,330,2013-12-07 21:55:00
5:15 PM,32.0,19.4,60,30.52,10.0,NNW,6.9,-,N/A,,Scattered Clouds,340,2013-12-07 22:15:00
5:35 PM,32.0,19.4,60,30.52,10.0,WNW,9.2,-,N/A,,Clear,290,2013-12-07 22:35:00
5:55 PM,32.0,19.4,60,30.53,10.0,NW,9.2,-,N/A,,Clear,320,2013-12-07 22:55:00
6:15 PM,32.0,19.4,60,30.54,10.0,WNW,4.6,-,N/A,,Clear,290,2013-12-07 23:15:00
6:35 PM,32.0,19.4,60,30.55,10.0,NW,3.5,-,N/A,,Clear,320,2013-12-07 23:35:00
6:55 PM,32.0,19.4,60,30.56,10.0,West,3.5,-,N/A,,Mostly Cloudy,260,2013-12-07 23:55:00
7:15 PM,32.0,19.4,60,30.56,10.0,West,3.5,-,N/A,,Overcast,270,2013-12-08 00:15:00
7:35 PM,32.0,19.4,60,30.57,10.0,West,6.9,-,N/A,,Overcast,280,2013-12-08 00:35:00
7:55 PM,32.0,19.4,60,30.57,10.0,West,5.8,-,N/A,,Overcast,260,2013-12-08 00:55:00
8:15 PM,32.0,19.4,60,30.58,10.0,WNW,3.5,-,N/A,,Overcast,290,2013-12-08 01:15:00
8:36 PM,32.0,19.4,60,30.57,10.0,West,5.8,-,N/A,,Mostly Cloudy,270,2013-12-08 01:36:00
8:56 PM,32.0,19.4,60,30.57,10.0,NW,4.6,-,N/A,,Scattered Clouds,320,2013-12-08 01:56:00
9:16 PM,32.0,19.4,60,30.57,10.0,WNW,4.6,-,N/A,,Clear,290,2013-12-08 02:16:00
9:36 PM,32.0,19.4,60,30.57,10.0,NNW,5.8,-,N/A,,Clear,330,2013-12-08 02:36:00
9:56 PM,32.0,19.4,60,30.57,10.0,NNW,5.8,-,N/A,,Clear,330,2013-12-08 02:56:00
10:16 PM,32.0,19.4,60,30.57,10.0,NNW,4.6,-,N/A,,Clear,340,2013-12-08 03:16:00
10:36 PM,30.2,19.4,64,30.57,10.0,Calm,Calm,-,N/A,,Clear,0,2013-12-08 03:36:00
10:56 PM,30.2,19.4,64,30.57,10.0,WNW,5.8,-,N/A,,Clear,300,2013-12-08 03:56:00
11:16 PM,30.2,19.4,64,30.57,10.0,NNW,4.6,-,N/A,,Clear,330,2013-12-08 04:16:00
11:36 PM,30.2,19.4,64,30.57,10.0,NNW,5.8,-,N/A,,Clear,330,2013-12-08 04:36:00
11:56 PM,30.2,19.4,64,30.57,10.0,North,4.6,-,N/A,,Clear,350,2013-12-08 04:56:00